Back to catalog

MINOTAUR R/B

LostVLEO
NORAD 42925·ROCKET BODY·🇺🇸 United States

Launched Aug 26, 2017 from Cape Canaveral Space Force Station

Loading…

Next Passes (next 24 hours)

TLE

StaleSource: Space-Track

Epoch: Aug 4, 2024, 11:05 UTC

1 42925U 17050E   24217.46245176  .00005433  00000-0  40856-3 0  9997
2 42925   0.0506 188.6312 0008982 322.7484 208.6697 14.95381459378590

Track MINOTAUR R/B in real time with AllMySat

Download on the App Store